Regional Weather Roundup
Issued by NWS

Home | Current Version | Previous Version | Graphics & Text | Print | Product List | Glossary On
Versions: 1 2 3 4 5 6 7 8 9 10 11 12 13 14 15 16 17 18 19 20 21 22 23 24 25 26 27 28 29 30 31 32 33 34 35 36 37 38 39 40 41 42 43 44 45 46 47 48 49 50
000
ASUS43 KLMK 292310
RWRKY
KENTUCKY REGIONAL WEATHER ROUNDUP
NATIONAL WEATHER SERVICE LOUISVILLE KY
700 PM EDT SUN MAR 29 2015

NOTE "FAIR" INDICATES FEW OR NO CLOUDS BELOW 12,000 FEET
WITH NO SIGNIFICANT WEATHER AND/OR OBSTRUCTIONS TO VISIBILITY.

KYZ001>023-026-027-061>063-070>075-300000-
WESTERN AND SOUTH CENTRAL KENTUCKY

CITY           SKY/WX    TMP DP  RH WIND       PRES   REMARKS
PADUCAH        MOSUNNY   60  42  51 SW15G22   30.01R
HENDERSON      CLOUDY    59  34  38 SW10      30.00R
OWENSBORO      PTSUNNY   60  36  40 SW17      29.98S
HOPKINSVILLE   MOSUNNY   62  38  41 S17G26    29.98F
BOWLING GREEN  PTSUNNY   61  30  31 S17       30.02F
GLASGOW        PTSUNNY   59  29  31 S14G21    30.02F
$$

KYZ024-025-028>034-038-045-046-053-300000-
NORTH CENTRAL KENTUCKY

CITY           SKY/WX    TMP DP  RH WIND       PRES   REMARKS
LOUISVILLE/SDF PTSUNNY   59  20  22 S10       29.98S
LOUISVILLE/LOU PTSUNNY   58  20  22 S12G21    29.97F
FORT KNOX      CLOUDY    57  25  28 S14G23    29.97S
$$

KYZ035>037-039>044-047>052-055>060-089>105-300000-
NORTHEAST KENTUCKY

CITY           SKY/WX    TMP DP  RH WIND       PRES   REMARKS
LEXINGTON      CLOUDY    56  16  20 S16G26    29.98F
COVINGTON      CLOUDY    52  15  23 S9        29.95F
FRANKFORT      CLOUDY    56  14  19 S15       29.96F
$$

KYZ054-064>069-076>088-106>120-300000-
SOUTHEAST KENTUCKY

CITY           SKY/WX    TMP DP  RH WIND       PRES   REMARKS
JACKSON        MOCLDY    55   7  14 VRB6      30.05F
LONDON         MOSUNNY   57   9  14 S15       30.07F
SOMERSET       PTSUNNY   57  14  18 S14G23    30.05F
MIDDLESBORO    SUNNY     55  13  19 S9        30.12F
MONTICELLO     CLEAR     60  18  19 S15       30.07F
$$



USA.gov is the U.S. government's official web portal to all federal, state and local government web resources and services.